Simultaneous Nadir Overpasses (SNOs) Predictions

Prediction of SNOs between GOES-16 and NOAA-20 Satellite Orbit:

Table of predicted SNOs for the next 14.0 days since TLE Epoch: 5/9/2025
Index Date Time (GOES-16) GOES-16 Lat,Lon NOAA-20 Lat,Lon Distance(km) Time Diff (sec)
1 05/10/2025 19:31:18 0.02, -90.73 -0.14, -91.55 93.06 80
2 05/11/2025 19:09:55 0.03, -91.24 0.95, -87.03 478.90 80
3 05/13/2025 07:34:26 -0.02, -92.02 0.08, -92.34 37.80 80
4 05/15/2025 19:35:05 0.02, -93.33 0.05, -93.18 17.04 80
5 05/17/2025 07:59:37 -0.01, -94.11 0.98, -98.49 499.20 80
6 05/18/2025 07:38:15 -0.02, -94.63 -0.17, -93.99 72.71 80
7 05/19/2025 20:02:55 0.01, -95.43 -0.84, -99.34 444.19 80
8 05/20/2025 19:41:33 0.01, -95.95 0.27, -94.83 128.20 80
9 05/22/2025 08:06:04 -0.01, -96.74 0.77,-100.13 387.36 80
10 05/23/2025 07:44:43 -0.01, -97.25 -0.39, -95.63 184.91 80
